Track SESAT 2 (EXPRESS AM-22) now! SESAT 2 (EXPRESS AM-22) is classified as:
1 28134U 03060A 22143.77470222 -.00000289 00000-0 00000-0 0 9990 2 28134 4.5849 79.4612 0008054 64.2339 140.0142 0.99356781 67275